Location: Arpaise
(41.0333°N, 14.7333°E)
Time: 01:10:22
(UTC+00:00)

Genesis I - Pass Details

Date: 05 July 2020
Orbit: 510 x 513 km, 64.5° (Epoch: 11 August)

Event Time Altitude Azimuth Distance (km) Brightness Sun altitude
Exits shadow 22:18:43 39° 300° (WNW) 782 4.3 -25.4°
Maximum altitude 22:18:55 39° 308° (NW) 777 4.4 -25.4°
Drops below altitude 10° 22:22:35 10° 19° (NNE) 1,735 6.6 -25.5°
Sets 22:24:52 0° 27° (NNE) 2,625 7.6 -25.6°
